CAPE
0 0 0 0 0 0 0 0 0 0 0 0 84 89 1 5 394 473 439 356 599 811 1070 1487 1839 2018 2009 1979 1908 2158 2184 2070 2260 2168 1945 1764 1747 1640 1505 1485 1310 1172 1306 1454
0 0 0 0 0 0 0 0 0 0 0 92 8 23 3 0 578 671 553 442 619 1041 1313 1681 1883 2046 2074 2017 2036 2192 2083 1964 2149 2101 1981 1743 1780 1629 1439 1416 1477 1476 1653 1460
0 0 0 0 0 0 0 0 0 0 0 248 16 1 0 2 371 223 374 782 1181 1302 1524 1849 2089 2251 2356 2462 2508 2409 2362 2018 2302 2215 2106 1967 1957 1714 1554 1591 1655 1645 1522 1658
0 0 0 23 98 4 0 0 0 0 0 173 75 94 152 137 994 1082 1043 1121 995 1932 1868 2020 2378 2527 2586 2942 3001 2619 2555 2306 2479 2251 2170 2314 2010 1778 1665 1850 1574 1827 1623 1559
0 0 0 2 94 79 46 0 0 0 0 28 107 597 86 144 1110 1572 1531 1205 978 1000 2205 2587 2747 2884 3054 3255 3051 2678 2512 2406 2506 2304 2059 2058 2284 2293 2078 1884 2078 1710 1615 1785
0 0 0 0 21 4 0 0 0 38 20 3 571 274 1113 1655 2025 2017 1707 1207 867 2142 2061 2749 3022 3282 3481 3445 3167 2845 2673 2516 2302 2501 2280 2174 2360 2265 2187 1995 1787 1530 1496 1369
0 0 0 6 0 117 25 10 34 94 344 441 696 665 1842 1984 1905 2003 1909 1736 1699 1932 2249 2369 3393 3669 3593 3437 3066 2947 2891 2795 2603 2457 2400 2358 2388 2298 2068 1606 1388 1194 1012 829
3 0 0 2 7 0 0 0 0 93 497 671 1102 1616 1536 1587 1562 1609 1726 1838 2113 2116 2154 2221 2482 2666 3285 3706 3508 3270 2927 2801 2707 2520 2499 2419 2307 2170 1261 815 749 810 870 697
0 0 0 0 0 0 0 0 35 148 634 1708 1712 1691 1365 1195 1273 1408 1538 1744 2097 1933 1531 1521 2047 2275 2369 2424 2838 3238 3416 3057 2923 2738 2460 1979 1790 1304 839 720 318 411 479 485
11 0 0 2 3 0 0 0 19 133 548 320 1212 1665 1549 1503 1448 1504 1515 1413 1637 1946 1710 1701 1706 1567 1502 1751 1819 1972 2439 2449 2168 1871 1407 1113 949 751 645 544 264 0 219 479
2 0 0 0 0 0 0 19 0 41 0 4 0 1317 1256 1127 1102 975 1146 1496 1570 1856 2008 1690 1356 1139 1285 1106 1026 1246 1504 1464 1390 1113 786 539 550 497 352 36 0 0 16 109
3 1 0 0 0 0 0 8 3 1 0 0 144 1126 1120 1074 1174 1221 1312 1244 1207 1381 1331 1665 1656 1272 871 831 849 751 845 831 664 607 644 554 428 285 89 40 1 0 0 37
0 0 0 0 0 0 0 0 0 0 25 57 459 1512 1363 1007 1226 1395 1393 1305 1257 1169 1168 1247 1084 838 712 653 599 463 395 466 699 719 452 375 685 378 265 53 0 0 0 0
5 17 35 22 0 0 0 0 44 60 4 159 1494 1416 1093 1415 1551 1420 1261 1154 1055 891 795 886 709 657 585 440 595 501 672 244 526 320 470 260 289 264 211 178 182 33 0 0
0 26 0 0 18 41 28 131 12 22 588 729 883 1500 1311 1353 1272 1037 844 751 724 606 650 544 348 290 407 557 711 584 588 554 643 461 408 255 247 242 257 330 218 43 0 0
0 1 0 80 221 133 13 259 393 455 562 575 617 1096 1150 998 767 498 619 716 596 329 104 211 160 181 333 341 365 660 312 126 605 454 351 187 89 48 134 1 21 5 7 0
151 150 303 165 170 171 310 181 265 317 637 662 607 654 608 498 454 420 364 266 299 199 128 124 337 270 338 633 600 520 348 80 197 95 66 12 52 40 0 1 1 0 0 0
250 117 142 135 186 236 321 145 58 79 248 307 266 391 430 454 460 482 302 100 301 212 127 113 145 268 508 591 525 368 334 350 230 266 209 164 220 126 87 93 74 35 0 0
265 397 449 474 530 513 430 313 45 3 0 17 196 255 359 462 229 170 163 146 165 85 70 259 213 267 190 2 220 63 132 340 90 109 16 6 26 12 46 94 74 62 0 0
131 174 202 405 599 981 603 420 47 2 0 65 103 357 386 394 170 64 238 409 359 164 158 182 398 117 41 0 0 14 51 32 37 28 34 62 98 29 64 30 23 47 26 7
158 193 306 196 359 818 943 383 10 0 0 0 30 230 319 253 207 416 391 202 121 7 148 161 4 0 0 0 0 0 25 17 10 23 7 51 134 46 10 1 6 9 17 53
94 139 317 484 374 545 756 418 61 0 0 0 149 338 265 156 96 284 288 153 110 12 28 19 0 0 0 0 0 0 0 0 0 0 0 0 0 0 0 2 19 28 15 20
52 151 172 162 392 398 447 604 351 63 86 380 411 224 171 148 267 39 271 132 0 0 0 0 0 0 0 0 0 0 0 0 0 0 0 2 0 0 0 0 2 17 0 0
0 21 30 296 483 658 479 497 288 172 356 458 399 301 263 140 131 5 0 0 0 0 0 0 0 0 0 0 0 0 0 0 0 0 0 8 10 11 13 6 10 7 3 0
6 140 331 430 277 546 477 332 262 194 225 310 284 284 329 0 0 0 0 0 0 0 0 0 0 0 0 0 0 0 5 0 0 0 0 2 23 11 3 0 0 0 0 2
35 253 287 55 18 82 287 211 20 54 149 174 249 120 1 0 0 0 0 0 0 0 0 0 0 0 0 23 45 51 50 23 14 5 6 1 0 0 0 2 0 0 0 0
80 127 189 1 0 1 9 11 0 0 1 24 60 21 0 0 0 0 0 0 0 0 6 14 0 19 37 13 2 1 5 0 0 0 0 0 0 0 0 0 0 0 0 0
CIN
0 0 0 0 0 0 0 0 0 0 0 0 -75 -122 -2 -23 -10 -35 -55 -41 -59 -85 -97 -94 -120 -151 -181 -184 -177 -184 -182 -182 -170 -151 -147 -143 -121 -114 -111 -102 -110 -112 -64 -23
0 0 -1 0 0 0 0 0 0 0 0 -120 -103 -116 -15 0 -12 -34 -39 -64 -63 -65 -118 -117 -129 -155 -186 -205 -198 -193 -189 -186 -176 -165 -151 -188 -178 -182 -180 -142 -97 -85 -38 -37
0 0 0 0 0 0 0 0 0 0 0 -143 -144 -94 0 -1 -28 -40 -53 -52 -49 -64 -96 -127 -138 -165 -188 -191 -181 -175 -159 -171 -126 -145 -164 -178 -160 -156 -157 -136 -102 -73 -77 -54
0 0 0 -47 -66 -25 0 0 0 0 0 -56 -67 -59 -141 -119 -49 -39 -66 -94 -99 -77 -95 -119 -144 -150 -154 -146 -137 -141 -132 -129 -101 -119 -118 -95 -103 -99 -85 -41 -69 -38 -45 -39
0 0 0 -21 -88 -36 -72 0 0 0 0 -59 -90 -87 -233 -191 -99 -59 -87 -146 -125 -116 -90 -114 -123 -132 -119 -107 -111 -123 -119 -98 -88 -100 -99 -69 -24 -21 -25 -15 -6 -12 -25 -10
0 0 0 0 -184 -72 0 0 -5 -349 -273 -108 -54 -59 -66 -83 -114 -94 -131 -149 -157 -94 -102 -81 -81 -79 -67 -63 -74 -85 -89 -94 -106 -89 -77 -60 -19 -7 -11 -9 -11 -12 -11 -16
0 0 -6 -118 0 -181 -89 -82 -354 -407 -367 -361 -22 -42 -93 -148 -143 -133 -145 -162 -178 -162 -148 -141 -58 -25 -20 -27 -32 -34 -48 -61 -67 -78 -53 -40 -12 -7 -12 -8 -9 -8 -14 -13
-34 0 0 -211 -198 0 0 0 -64 -412 -354 -263 -53 -99 -138 -165 -184 -183 -186 -191 -185 -191 -189 -180 -131 -83 -41 -27 -22 -35 -44 -51 -52 -42 -27 -25 -13 -14 -51 -115 -75 -76 -46 -61
0 0 0 0 0 0 0 0 -470 -424 -439 -86 -95 -140 -182 -188 -206 -216 -208 -218 -194 -193 -225 -256 -198 -168 -126 -133 -75 -40 -13 -12 -10 -10 -6 -8 -17 -52 -133 -93 -133 -91 -60 -45
-50 0 0 -39 -47 0 0 -6 -477 -370 -397 -261 -118 -154 -167 -235 -249 -233 -203 -212 -212 -200 -218 -225 -232 -252 -256 -205 -164 -102 -34 -22 -29 -30 -56 -95 -116 -129 -134 -116 -152 0 -96 -46
-98 0 0 0 -32 0 0 -571 0 -262 0 -43 0 -144 -224 -286 -276 -255 -220 -216 -190 -159 -166 -197 -250 -277 -255 -270 -250 -172 -94 -50 -37 -71 -121 -186 -193 -169 -153 -138 0 0 -160 -116
-53 -35 0 0 0 0 0 -369 -191 -82 0 0 -200 -178 -246 -245 -228 -233 -214 -228 -236 -201 -198 -149 -155 -204 -270 -264 -225 -211 -146 -99 -100 -72 -89 -120 -141 -193 -313 -255 -28 0 0 -89
0 -39 0 0 0 0 0 0 0 0 -49 -41 -71 -115 -198 -267 -244 -213 -199 -209 -208 -219 -193 -159 -176 -222 -232 -217 -215 -221 -221 -169 -54 -22 -36 -53 -16 -62 -100 -285 0 0 0 0
-195 -205 -159 -98 0 0 0 0 -188 -212 -154 -128 -68 -148 -220 -217 -180 -212 -230 -240 -230 -237 -232 -184 -198 -191 -183 -208 -138 -135 -69 -190 -62 -82 -41 -62 -44 -32 -20 -36 -43 -135 0 -29
0 -120 0 0 -230 -143 -259 -131 -230 -64 -8 -38 -64 -103 -179 -164 -157 -178 -228 -267 -263 -269 -210 -204 -241 -250 -159 -77 -41 -53 -57 -51 -21 -38 -43 -51 -38 -34 -23 -8 -23 -102 0 0
0 -33 0 -160 -115 -221 -121 -29 -4 -10 -9 -11 -27 -29 -53 -122 -216 -304 -234 -178 -230 -289 -392 -289 -303 -284 -138 -101 -70 -15 -65 -146 -11 -11 -26 -32 -77 -104 -31 -28 -84 -192 -212 0
-21 -19 -12 -75 -83 -54 -41 -79 -103 -110 -39 -25 -33 -57 -69 -115 -151 -166 -228 -301 -306 -369 -392 -331 -139 -146 -98 -23 -17 -11 -41 -126 -30 -60 -54 -93 -48 -43 -4 -52 -1 0 0 0
-30 -30 -28 -20 -26 -27 -23 -54 -97 -111 -152 -141 -83 -61 -54 -90 -91 -124 -183 -285 -161 -282 -370 -372 -288 -136 -45 -13 -9 -7 -9 -9 -11 -9 -14 -4 -7 -7 -13 -20 -37 -64 -7 0
-21 -10 -15 -19 -14 -17 -22 -50 -85 -59 0 -60 -57 -42 -65 -73 -110 -172 -208 -184 -181 -284 -321 -191 -190 -107 -96 -97 -31 -95 -42 -8 -46 -28 -125 -90 -70 -80 -44 -22 -35 -48 -9 0
-14 -20 -27 -14 -15 -9 -2 -26 -138 -134 0 -187 -162 -17 -49 -65 -133 -194 -123 -76 -79 -144 -147 -139 -48 -138 -146 0 0 -43 -63 -13 -122 -9 -32 -59 -33 -93 -37 -43 -46 -26 -37 -23
-39 -35 -14 -31 -41 -30 -19 -36 -153 0 0 0 -141 -41 -40 -78 -80 -58 -74 -83 -128 -241 -80 -60 -103 0 0 0 0 0 -15 -12 -10 -11 -10 -9 -24 -16 -13 -6 -16 -24 -35 -45
-50 -49 -34 -30 -45 -45 -31 -51 -151 0 0 0 -146 -48 -54 -67 -65 -61 -63 -82 -119 -146 -98 -60 0 0 0 0 0 0 0 0 0 0 0 0 0 0 0 -9 -10 -12 -13 -16
-44 -35 -37 -38 -27 -48 -52 -26 -103 -163 -129 -47 -22 -99 -79 -73 -48 -113 -62 -84 0 0 0 0 0 0 0 0 0 0 0 0 0 0 0 -9 0 0 0 0 -20 -17 -12 0
0 -51 -51 -11 -5 -2 -24 -26 -24 -111 -67 -20 -54 -36 -75 -93 -61 -65 -13 0 0 0 0 0 0 0 0 0 0 0 0 0 0 0 0 -15 -8 -13 -23 -27 -31 -30 -35 0
-12 -15 -2 -11 -26 -3 -11 -64 -45 -10 -12 -62 -47 -17 -15 0 0 0 0 0 0 0 0 0 0 0 0 -1 0 0 -10 -2 0 0 0 -8 -17 -19 -24 0 0 0 0 -38
-78 -4 -5 -58 -49 -58 -14 -71 -62 -117 -22 -9 -13 -14 -5 0 0 0 0 0 0 0 0 0 0 0 0 -22 -14 -21 -24 -38 -36 -62 -65 -56 0 0 -11 -59 -19 0 0 0
-24 -13 -5 -13 0 -12 -20 -26 0 0 -19 -46 -22 -38 0 0 0 0 0 0 0 0 -41 -27 -20 -41 -27 -38 -14 -14 -84 -26 -20 0 0 0 0 0 0 0 0 0 0 0
Wind_Speed
38 36 37 38 38 35 32 29 41 46 41 30 22 17 17 29 8 5 4 4 2 6 6 6 8 10 10 11 12 12 14 14 14 14 13 12 11 11 12 13 14 14 13 13
35 35 37 42 40 39 40 32 26 42 47 20 19 18 23 22 12 5 7 4 3 7 7 6 7 8 8 9 10 9 11 11 11 12 12 12 13 13 13 12 12 12 11 10
35 34 38 41 39 40 41 41 33 38 34 16 16 12 6 29 11 5 5 6 2 4 4 5 5 5 5 4 5 6 6 7 7 8 9 9 10 10 10 11 10 9 10 10
40 36 43 37 35 38 41 40 40 38 23 16 19 11 15 10 20 17 13 11 10 4 2 3 2 2 2 1 1 2 3 4 4 3 3 4 4 5 5 4 5 6 9 8
32 31 44 43 39 32 34 47 43 38 39 17 18 9 11 7 12 9 15 16 12 11 3 2 1 0 1 2 3 3 4 4 6 3 3 4 3 2 1 1 1 2 5 3
29 34 40 36 37 33 34 45 38 38 39 35 11 23 17 7 4 6 7 7 6 9 6 3 4 2 2 3 4 4 4 4 5 5 6 6 6 6 7 8 10 11 14 13
38 39 39 35 36 36 35 39 43 41 41 41 24 23 14 7 4 1 3 7 7 7 7 9 9 5 4 5 5 5 5 6 7 8 8 7 8 10 11 15 20 25 29 29
29 39 47 29 30 29 39 48 45 45 43 44 20 16 15 9 7 2 2 5 6 6 9 12 13 12 14 14 15 8 8 9 10 11 11 10 9 11 10 8 10 13 24 21
19 35 39 41 38 36 39 40 41 38 33 26 17 17 15 13 7 3 1 4 4 7 10 13 14 15 16 20 21 20 14 14 16 15 16 18 17 12 7 5 6 6 8 8
24 31 35 41 40 37 37 44 45 38 31 27 26 17 15 10 7 4 3 5 8 8 10 12 14 17 18 20 21 20 19 19 19 19 19 18 16 13 10 8 8 8 12 12
30 36 37 40 41 38 40 40 42 34 38 42 45 16 12 6 6 5 7 7 9 10 12 14 15 18 19 21 21 20 19 19 18 17 16 16 15 12 10 11 12 15 15 12
29 32 29 26 35 39 26 20 20 20 50 40 24 12 7 3 5 7 8 8 11 13 13 14 14 17 19 20 20 20 20 20 20 19 15 14 14 15 15 14 15 12 13 12
32 16 27 22 23 14 6 13 6 12 16 53 33 5 3 3 6 7 9 11 13 14 15 15 16 17 19 18 19 19 19 20 20 19 19 17 13 14 16 15 15 14 13 11
3 4 10 8 11 9 18 25 17 20 21 28 3 4 2 3 5 8 11 12 13 15 16 16 17 18 18 19 18 18 17 18 18 19 18 18 17 17 17 15 16 16 15 12
2 6 9 9 14 14 16 23 23 24 5 6 6 4 4 6 9 11 12 13 13 14 16 16 17 18 19 18 17 17 15 15 16 17 17 17 16 16 16 17 15 14 15 16
1 4 7 6 8 9 18 22 24 5 8 11 8 7 8 9 11 12 13 13 13 15 16 17 17 18 19 19 19 14 15 16 15 15 16 17 17 17 15 17 16 16 16 17
13 17 15 8 7 9 11 24 19 20 18 17 9 7 9 10 11 12 13 13 12 13 13 15 16 16 15 18 18 14 13 15 16 18 16 16 16 16 17 17 15 16 16 17
19 21 23 25 28 26 16 16 19 20 21 20 17 12 12 8 9 8 11 14 13 12 14 14 14 14 16 17 16 15 15 15 17 17 16 17 17 16 16 17 18 15 15 16
28 23 24 25 28 31 31 20 18 15 12 15 24 17 12 7 6 8 8 10 11 13 14 13 13 15 16 15 15 16 14 14 15 15 15 15 16 17 17 18 18 18 14 16
25 24 26 27 27 27 30 20 14 12 10 10 6 2 10 8 8 8 9 11 10 12 13 12 14 16 16 13 14 15 14 14 14 14 15 14 16 17 17 18 18 19 18 17
24 25 27 28 30 30 31 8 7 2 4 5 6 7 4 7 8 6 6 9 11 11 12 11 14 15 13 15 18 16 10 13 15 15 17 15 16 17 17 17 18 18 19 20
25 26 27 28 29 31 33 7 4 3 4 8 6 3 3 5 5 8 6 7 9 9 10 12 12 13 14 15 13 13 14 15 16 17 17 17 18 19 19 19 17 17 19 20
27 28 28 29 30 30 32 17 4 7 4 9 3 4 4 5 5 7 7 7 7 9 8 9 9 11 13 14 14 14 15 16 17 18 19 17 17 19 21 23 21 18 22 24
29 29 29 29 29 27 25 13 14 7 4 1 1 4 6 7 6 7 7 7 7 8 8 8 9 10 12 13 13 14 14 15 17 16 19 20 18 20 21 21 22 23 24 25
30 30 29 27 27 25 13 4 5 5 4 2 7 2 2 7 8 8 8 9 9 10 10 10 10 11 12 14 13 13 12 13 15 17 19 21 20 21 21 22 23 25 25 26
29 27 27 25 24 19 10 7 9 9 9 9 4 5 3 7 9 9 7 7 7 9 10 10 10 11 11 14 15 17 16 13 15 19 19 21 22 23 24 25 25 26 27 28
26 24 22 23 21 17 10 5 3 5 12 13 16 9 3 6 6 7 7 7 7 7 8 9 10 11 14 14 14 14 15 15 15 18 20 23 25 26 25 27 29 29 30 32
Wind_Direction
280 281 280 277 277 276 268 275 265 254 261 272 278 291 288 284 175 180 152 129 146 125 121 107 110 116 113 111 114 109 121 123 120 121 121 114 119 122 131 140 148 150 147 147
284 279 281 276 273 271 268 281 274 261 256 278 273 283 296 270 257 187 154 150 120 150 139 137 126 127 121 112 112 107 122 121 112 113 114 116 129 135 138 141 150 146 142 145
285 277 281 272 266 266 268 265 282 267 270 261 267 279 216 254 265 261 284 326 253 178 163 166 158 142 134 110 105 98 101 108 100 112 124 127 129 130 136 143 141 145 150 150
275 280 270 266 278 274 269 268 271 280 287 256 258 260 257 227 274 276 280 313 333 296 206 175 177 159 129 49 39 45 39 40 45 110 100 84 115 137 136 133 146 154 160 156
287 285 263 254 265 283 283 263 267 278 275 275 269 212 256 189 197 251 291 292 299 329 251 249 207 160 50 22 327 317 327 335 337 330 322 326 316 301 275 268 292 247 305 299
283 282 259 269 281 287 289 271 271 286 277 273 231 237 242 235 227 272 312 342 2 339 321 287 296 313 337 335 337 324 313 305 313 312 313 314 307 305 306 307 305 305 300 295
274 275 270 279 288 283 279 274 280 285 273 269 247 252 226 211 215 69 45 38 28 11 2 351 332 327 324 324 319 318 324 322 315 312 308 307 306 305 307 310 309 304 296 294
286 270 245 295 282 287 282 278 272 275 274 268 242 202 198 198 200 224 41 40 9 338 330 329 331 337 331 317 316 319 319 320 319 317 314 309 303 311 318 348 328 329 302 305
302 279 270 270 275 290 286 272 266 273 279 246 200 187 187 183 180 157 348 360 350 340 335 332 332 334 330 323 326 326 319 320 321 319 317 317 316 317 309 282 299 301 307 292
313 301 251 276 281 290 284 275 267 270 263 262 232 185 184 181 195 231 309 333 326 330 332 333 334 331 328 327 328 329 327 326 325 323 321 322 323 322 309 288 293 295 307 300
306 285 286 295 277 288 288 280 271 266 269 249 256 190 187 195 231 268 288 320 323 322 322 323 329 329 328 328 327 328 331 332 333 334 334 334 334 335 328 317 312 305 307 291
305 294 312 272 263 289 299 298 273 255 237 244 256 198 192 221 273 291 300 314 321 320 323 330 334 336 335 333 331 330 331 332 333 336 339 341 345 344 337 331 325 317 307 301
276 215 266 245 238 339 245 16 328 247 224 234 234 240 238 271 283 295 307 315 314 319 323 326 329 332 333 337 336 333 331 331 331 335 337 342 347 349 347 344 348 345 340 332
122 93 303 154 26 263 247 210 149 161 188 188 63 290 309 304 304 310 312 317 323 323 322 324 326 327 330 332 334 333 336 338 338 337 338 340 342 349 352 355 350 349 356 3
112 143 38 30 22 189 216 202 202 211 283 318 320 349 323 307 307 308 315 319 322 325 325 326 326 327 327 328 332 337 343 341 338 341 345 349 350 354 350 346 348 354 352 351
89 67 38 56 123 197 211 253 246 355 322 307 315 317 312 309 310 313 318 320 319 322 322 322 323 321 321 323 327 335 342 344 340 341 342 342 344 345 348 337 340 344 343 341
323 316 333 13 70 81 140 261 300 295 298 288 292 315 317 322 323 320 321 323 328 332 338 335 332 333 328 325 328 339 346 346 340 334 337 341 342 339 335 332 337 343 342 344
307 305 299 298 285 284 317 321 308 298 301 303 293 303 308 323 328 336 330 324 326 341 342 342 338 337 331 328 331 334 336 337 335 331 331 337 335 340 335 330 330 338 342 349
298 303 299 294 279 272 275 309 309 316 321 305 292 292 304 334 355 352 353 338 325 333 338 347 351 337 333 334 330 329 342 348 344 345 346 343 340 339 333 331 332 337 350 342
320 305 297 294 292 291 276 300 310 329 338 4 338 324 303 338 351 344 335 324 329 333 344 348 342 335 336 343 336 331 344 353 350 353 352 353 353 350 347 344 340 335 333 337
311 304 294 294 288 287 281 308 304 336 41 126 144 124 345 337 338 345 351 334 338 344 341 347 346 341 344 330 325 332 8 359 357 354 349 350 351 358 1 359 352 349 347 343
300 288 294 297 295 285 280 320 193 232 315 286 121 72 19 21 12 337 352 1 357 353 344 339 353 354 353 355 22 22 14 6 359 354 355 359 356 355 356 351 352 357 355 351
288 291 299 299 295 294 292 306 221 171 144 144 123 96 65 78 77 7 3 1 360 347 8 5 6 14 16 14 10 8 5 358 354 347 345 351 355 348 347 348 356 358 349 345
286 290 294 297 297 299 301 306 287 140 130 159 103 101 101 96 44 20 17 26 36 26 38 35 27 13 356 349 354 354 2 4 353 345 342 344 349 346 348 349 348 346 343 340
284 288 296 304 303 304 316 342 77 33 38 348 271 200 46 68 61 73 71 71 65 49 33 19 8 357 348 346 357 353 0 4 2 357 350 351 354 354 352 350 346 342 341 341
287 296 301 307 308 316 319 305 302 322 317 281 258 274 340 68 55 72 67 71 75 52 48 19 8 357 351 351 353 344 342 353 357 356 5 5 2 356 350 348 349 345 343 341
295 304 307 307 311 313 321 338 8 331 309 293 269 294 90 60 53 63 61 67 49 37 16 352 351 359 346 8 15 17 22 20 13 4 4 359 353 349 348 346 343 339 336 334